Location: Pasarilla del Rebollar
(40.6790°N, 5.0062°W)
Time: 11:25:25
(UTC+00:00)

H-2A R/B - Pass Details

Date: 22 April 2026
Orbit: 478 x 548 km, 98.3° (Epoch: 14 May)

Event Time Altitude Azimuth Distance (km) Brightness Sun altitude
Exits shadow 03:42:09 45° 287° (WNW) 684 2.5 -19.3°
Drops below altitude 10° 03:45:09 10° 335° (NNW) 1,679 4.9 -18.8°
Sets 03:47:15 0° 341° (NNW) 2,557 6.0 -18.5°
